Date,TemperatureHighF,TemperatureAvgF,TemperatureLowF,DewpointHighF,DewpointAvgF,DewpointLowF,HumidityHigh,HumidityAvg,HumidityLow,PressureMaxIn,PressureMinIn,WindSpeedMaxMPH,WindSpeedAvgMPH,GustSpeedMaxMPH,PrecipitationSumIn
2013-1-1,38.8,25.3,13.4,14.9,7.3,2.6,66,48,26,30.58,30.21,15,4,22,0.00
2013-1-2,39.3,22.7,7.5,9.1,1.6,-5.0,63,42,18,30.72,30.20,7,2,11,0.00
2013-1-3,39.1,24.3,13.9,9.2,2.3,-3.0,53,40,22,30.71,30.33,8,3,13,0.00
2013-1-4,37.2,21.7,8.2,1.7,-4.7,-13.0,53,32,18,30.79,30.27,7,2,11,0.00
2013-1-5,43.5,26.3,11.1,2.2,-4.0,-12.0,43,27,17,30.79,30.32,6,2,11,0.00
2013-1-6,42.4,27.0,12.3,2.8,-2.0,-6.0,45,29,18,30.82,30.24,6,2,9,0.00
2013-1-7,51.9,35.9,26.9,12.9,6.9,-1.0,51,31,18,30.34,29.88,9,2,15,0.00
2013-1-8,50.1,33.8,16.8,14.4,9.1,3.7,63,39,17,30.41,29.95,18,6,30,0.00
2013-1-9,57.3,35.7,18.6,14.3,8.0,0.5,56,34,16,30.75,30.11,8,2,11,0.00
2013-1-10,45.1,32.0,20.4,10.1,5.8,2.3,48,34,19,30.35,29.90,8,2,12,0.00
2013-1-11,29.2,29.0,28.9,8.7,8.5,8.3,42,41,41,29.91,29.89,2,1,3,0.00
2013-1-14,29.1,20.4,12.5,19.4,7.3,-5.0,72,57,41,30.48,30.14,12,3,21,0.00
2013-1-15,25.8,15.4,4.2,-4.0,-9.8,-16.0,54,32,18,30.77,30.43,17,5,25,0.00
2013-1-16,42.4,23.1,7.1,6.8,-1.2,-10.0,52,35,18,30.89,30.35,8,2,13,0.00
2013-1-17,50.7,29.4,11.8,11.5,5.1,-1.0,62,38,19,30.93,30.34,5,2,8,0.00
2013-1-18,53.2,34.1,18.6,16.6,9.2,2.6,57,38,18,30.72,30.17,8,2,9,0.00
2013-1-19,57.3,34.8,17.4,17.3,11.0,6.1,64,40,17,30.69,30.16,6,2,10,0.00
2013-1-20,55.5,33.6,15.7,15.9,5.8,-5.0,58,34,16,30.71,30.08,8,2,14,0.00
2013-1-21,57.5,36.0,16.6,13.5,6.2,-1.0,52,31,16,30.66,30.07,8,2,14,0.00
2013-1-22,58.4,38.8,20.1,15.2,8.1,2.4,51,30,16,30.65,30.10,13,2,17,0.00
2013-1-23,58.8,38.5,19.9,12.5,4.2,-5.0,44,25,15,30.71,30.16,5,2,8,0.00
2013-1-24,62.4,43.1,22.8,32.2,10.8,-5.0,60,29,13,30.63,30.01,13,2,17,0.00
2013-1-25,59.8,46.7,35.7,37.5,32.2,26.4,71,58,41,30.41,30.06,5,2,8,0.00
2013-1-26,54.3,45.1,40.0,47.0,37.3,31.7,88,74,58,30.23,29.80,14,2,18,0.13
2013-1-27,60.2,47.6,35.9,38.3,34.6,27.7,92,64,30,30.09,29.75,12,3,21,0.00
2013-1-28,54.8,41.4,31.6,36.4,28.9,12.6,86,63,35,30.04,29.64,15,6,27,0.00
2013-1-29,35.2,30.5,24.9,18.1,8.0,-6.0,66,40,17,30.22,29.83,28,11,52,0.02
2013-1-30,34.8,24.2,18.1,11.5,7.6,3.5,57,49,26,30.47,30.21,20,7,29,0.00
2013-2-28,41.3,37.8,32.3,1.6,-0.5,-5.0,21,19,17,30.46,30.32,11,4,17,0.00
2013-3-1,60.0,43.5,26.2,16.1,6.5,-6.0,33,22,15,30.60,30.10,16,6,29,0.00
2013-3-2,68.5,48.1,27.4,19.6,13.3,5.4,53,28,11,30.65,30.00,7,2,12,0.00
2013-3-3,68.7,49.4,30.0,17.1,11.9,5.9,45,24,10,30.32,29.65,14,4,22,0.00
2013-3-4,64.0,51.7,40.2,16.9,12.7,7.3,35,21,13,30.19,29.63,23,6,36,0.00
2013-3-5,61.1,45.9,28.7,20.1,13.2,6.7,56,29,14,30.50,30.01,8,3,13,0.00
2013-3-6,66.7,51.7,40.0,18.0,13.1,2.1,34,22,12,30.24,29.72,11,3,17,0.00
2013-3-7,42.2,37.9,33.2,7.2,3.7,0.0,28,23,19,30.19,30.06,2,1,4,0.00
2013-3-8,60.6,48.4,37.5,41.7,27.8,4.1,82,53,16,29.99,29.69,16,5,27,0.09
2013-3-9,47.4,38.1,29.8,32.6,20.1,6.6,80,51,21,30.13,29.76,15,5,27,0.00
2013-3-10,53.0,39.6,28.0,28.1,17.5,2.8,75,47,17,30.31,29.97,16,4,27,0.00
2013-3-11,63.8,44.5,24.6,18.1,11.5,7.9,52,29,13,30.42,29.82,15,4,25,0.00
2013-3-12,69.9,52.0,31.9,20.0,14.2,9.2,46,25,10,30.37,29.88,18,4,27,0.00
2013-3-13,71.5,52.0,32.1,25.3,15.1,8.3,53,27,10,30.52,29.95,10,3,19,0.00
2013-3-14,77.8,57.9,37.5,43.2,14.6,6.9,97,21,10,30.46,29.90,9,3,12,0.00
2013-3-15,80.0,58.7,38.8,18.5,10.5,1.6,25,15,10,30.31,29.64,8,2,12,0.00
2013-3-16,72.8,57.2,40.6,33.0,13.2,3.2,50,19,10,30.03,29.50,26,5,36,0.00
2013-3-17,69.9,52.8,36.6,36.1,21.4,6.2,66,36,10,30.00,29.45,23,6,36,0.00
2013-3-18,68.5,52.2,33.9,12.4,6.9,-5.0,23,16,10,30.13,29.67,18,4,30,0.00
2013-3-19,63.4,49.2,37.9,12.5,6.7,0.2,23,18,13,30.24,29.85,14,3,30,0.00
2013-3-20,63.3,49.0,31.9,22.0,11.8,4.7,39,23,13,30.43,29.76,10,4,15,0.00
2013-3-21,71.9,58.4,46.2,30.2,17.1,6.2,43,22,10,29.80,29.37,21,8,37,0.00
2013-3-22,67.2,51.2,32.8,24.4,9.2,-5.0,37,19,11,29.99,29.39,14,5,27,0.00
2013-3-23,49.9,39.4,29.2,24.9,4.5,-7.0,47,24,17,30.29,29.67,32,10,49,0.00
2013-3-24,55.0,38.1,20.6,12.3,-0.9,-14.0,21,19,15,30.43,29.80,22,6,34,0.00
2013-3-25,57.3,40.5,22.4,12.4,3.2,-9.0,38,21,16,30.47,29.93,14,4,23,0.00
2013-3-26,66.3,47.6,27.8,12.5,5.5,-5.0,25,18,11,30.41,29.74,14,5,21,0.00
2013-3-27,72.8,56.7,38.1,17.2,9.4,2.5,27,16,10,30.15,29.69,11,4,22,0.00
2013-3-28,74.1,60.5,45.1,17.2,11.0,6.2,22,14,10,30.14,29.75,21,3,27,0.00
2013-3-29,74.6,59.1,42.9,17.4,12.5,7.7,25,17,10,30.24,29.77,15,3,23,0.00
2013-3-30,74.6,58.6,38.1,18.8,12.5,5.5,31,17,10,30.29,29.71,13,3,29,0.00
2013-3-31,75.7,60.6,47.2,30.8,20.3,12.7,46,23,11,30.10,29.67,8,3,14,0.00
2013-4-1,75.5,61.7,43.5,22.7,16.0,9.4,39,19,10,30.10,29.55,11,3,21,0.00
2013-4-2,68.3,55.5,43.5,16.8,11.0,2.8,27,17,10,30.01,29.58,28,5,39,0.00
2013-4-3,68.1,52.5,35.9,30.4,20.6,9.2,63,34,10,30.23,29.78,12,4,23,0.00
2013-4-4,75.7,56.6,36.6,26.0,17.7,9.2,55,26,10,30.35,29.78,10,2,17,0.00
2013-4-5,77.5,61.3,46.0,17.4,11.0,6.2,21,14,10,30.11,29.49,13,4,24,0.00
2013-4-6,77.1,63.7,46.9,20.4,15.0,9.2,32,16,10,30.00,29.50,12,4,20,0.00
2013-4-7,76.0,64.0,47.6,21.6,15.0,9.5,32,16,10,29.90,29.44,13,5,23,0.00
2013-4-8,76.9,63.0,46.9,28.1,15.9,9.2,38,17,10,29.73,29.06,26,8,37,0.00
2013-4-9,52.5,45.2,39.0,35.1,30.1,23.2,80,57,35,29.92,29.37,15,6,26,0.04
2013-4-10,50.7,40.8,35.5,33.8,22.9,14.0,82,51,27,30.08,29.88,17,5,27,0.01
2013-4-11,66.5,48.4,27.6,26.3,17.0,8.7,51,31,15,30.16,29.58,21,6,30,0.00
2013-4-12,70.1,56.3,41.5,31.4,22.8,11.3,55,31,11,29.98,29.57,12,3,22,0.00
2013-4-13,75.9,59.5,38.1,21.8,16.2,9.4,44,21,10,30.02,29.37,15,4,33,0.00
2013-4-14,78.9,64.9,52.5,19.2,15.8,9.2,24,16,10,29.61,29.26,18,8,36,0.00
2013-4-15,81.6,63.6,44.4,24.1,15.6,9.2,33,17,10,29.79,29.20,19,6,31,0.00
2013-4-16,80.5,65.7,47.2,23.2,14.5,9.2,25,14,10,29.81,29.26,20,7,33,0.00
2013-4-17,63.4,53.2,37.0,24.5,15.4,6.9,42,23,13,30.09,29.49,24,8,42,0.00
2013-4-18,49.6,40.2,29.6,15.9,4.2,-3.0,42,23,17,30.34,30.02,24,9,38,0.00
2013-4-19,66.1,46.0,26.4,12.5,4.3,-6.0,25,18,11,30.55,29.80,11,3,16,0.00
2013-4-20,69.2,55.2,40.0,15.8,8.7,0.6,23,16,10,30.07,29.61,22,6,40,0.00
2013-4-21,76.0,58.2,37.2,19.0,14.2,8.2,44,20,10,30.26,29.66,13,4,23,0.00
2013-4-22,82.5,64.5,40.9,24.3,13.7,3.1,27,15,10,30.09,29.42,16,5,26,0.00
2013-4-23,70.6,58.8,41.7,27.9,14.7,3.5,48,19,10,30.17,29.61,26,7,38,0.00
2013-4-24,70.5,49.5,28.2,16.5,12.0,3.9,52,26,10,30.41,29.77,10,3,15,0.00
2013-4-25,76.2,60.5,47.1,26.9,17.4,9.2,34,20,10,30.11,29.55,20,5,33,0.00
2013-4-26,76.9,60.5,42.0,29.6,19.7,9.2,52,25,10,30.19,29.78,20,4,24,0.00
2013-4-27,79.5,62.1,43.1,24.7,18.1,9.5,42,21,10,30.31,29.73,11,4,17,0.00
2013-4-28,82.3,64.0,42.0,24.2,12.7,0.8,20,14,10,30.18,29.54,11,3,21,0.00
2013-4-29,86.3,67.4,45.1,24.3,14.5,6.3,20,13,10,29.99,29.37,13,4,24,0.00
2013-4-30,86.3,70.2,49.6,24.3,15.2,7.0,19,12,10,29.81,29.32,18,4,25,0.00
2013-5-1,67.4,66.2,63.3,11.8,10.9,10.0,13,11,11,29.68,29.59,8,4,16,0.00
2013-5-2,64.5,54.0,43.3,17.1,11.6,8.0,33,19,12,30.54,30.18,10,4,16,0.00
2013-5-3,66.7,50.6,31.6,14.4,9.6,4.8,35,20,11,30.58,29.79,11,4,16,0.00
2013-5-4,50.5,43.2,40.0,8.2,4.2,1.7,21,19,17,30.10,29.99,4,2,6,0.00
2013-5-7,74.8,68.5,56.2,31.3,22.1,11.3,38,18,10,29.83,29.60,17,6,27,0.00
2013-5-8,73.0,60.7,45.6,33.7,20.6,9.4,55,26,10,30.04,29.66,13,4,20,0.00
2013-5-9,73.9,60.6,45.3,27.7,18.4,10.6,40,21,10,30.08,29.69,13,4,23,0.00
2013-5-10,73.0,58.3,46.5,40.6,34.1,25.9,65,42,19,30.28,29.84,15,4,27,0.00
2013-5-11,72.8,59.5,45.4,41.2,32.9,14.7,76,42,12,30.36,30.01,11,3,21,0.00
2013-5-12,81.1,62.7,43.1,34.4,26.1,17.0,54,30,10,30.42,29.80,11,2,16,0.00
2013-5-13,84.0,67.3,47.6,29.7,23.1,12.9,44,21,10,30.29,29.75,10,2,15,0.00
2013-5-14,86.3,69.0,50.3,41.5,21.3,9.9,38,18,10,30.13,29.51,17,4,32,0.00
2013-5-15,90.1,72.6,61.8,42.2,30.2,9.9,48,25,10,29.87,29.41,20,4,34,0.00
2013-5-16,87.4,72.1,51.7,24.1,18.5,9.4,24,14,10,29.98,29.44,12,4,20,0.00
2013-5-17,86.3,72.1,51.2,25.4,17.2,8.2,23,13,10,30.00,29.46,14,4,19,0.00
2013-5-18,79.1,68.9,54.6,26.2,14.6,9.4,25,13,10,29.95,29.51,19,6,31,0.00
2013-5-19,75.7,64.2,54.4,33.8,24.6,10.7,43,25,10,29.89,29.58,22,7,32,0.00
2013-5-20,77.5,62.7,48.0,34.0,24.4,11.1,53,27,10,29.97,29.54,23,6,40,0.00
2013-5-21,81.4,64.8,46.2,33.8,24.8,10.6,53,27,10,30.08,29.50,15,3,26,0.00
2013-5-22,86.5,71.0,50.8,24.3,18.9,10.9,30,15,10,29.90,29.39,11,3,17,0.00
2013-5-23,91.2,74.1,54.4,31.1,18.0,9.2,19,12,10,29.91,29.40,12,4,25,0.00
2013-5-24,87.9,74.0,56.1,45.9,30.1,9.4,62,25,10,29.98,29.52,12,4,20,0.00
2013-5-25,93.1,75.2,52.3,31.3,20.3,8.9,20,13,10,30.05,29.42,9,4,23,0.00
2013-5-26,89.0,74.7,55.2,25.3,17.5,9.2,17,12,10,29.99,29.46,11,4,17,0.00
2013-5-27,85.2,69.7,54.1,24.2,15.1,9.2,19,13,10,29.96,29.47,16,4,27,0.00
2013-5-28,85.6,70.2,49.4,24.3,16.2,8.0,20,13,10,29.86,29.27,12,4,21,0.00
2013-5-29,82.2,71.2,58.9,35.0,20.6,9.4,34,16,10,29.63,29.28,17,6,36,0.00
2013-5-30,88.8,72.8,53.5,25.2,17.7,10.0,22,13,10,29.84,29.37,18,5,30,0.00
2013-5-31,72.3,71.0,69.9,23.4,17.4,10.9,17,13,10,29.65,29.62,9,6,14,0.00
2013-6-3,92.6,83.0,69.2,49.5,32.1,14.7,46,19,10,29.80,29.36,16,7,25,0.00
2013-6-4,94.2,78.3,56.4,31.3,21.0,9.6,19,12,10,29.92,29.40,11,4,21,0.00
2013-6-5,91.0,77.1,62.0,40.8,24.5,11.1,30,15,10,29.87,29.44,17,4,25,0.00
2013-6-6,88.3,72.9,55.7,42.3,34.9,21.7,53,29,10,29.97,29.50,12,4,19,0.00
2013-6-7,92.1,74.4,59.1,49.5,39.9,22.0,64,34,10,29.95,29.38,15,4,30,0.00
2013-6-8,97.1,78.5,57.3,43.9,34.3,18.5,54,25,10,29.84,29.28,21,6,32,0.00
2013-6-9,96.9,81.6,64.3,46.1,37.0,16.2,49,24,10,29.87,29.45,8,3,13,0.00
2013-6-10,98.9,84.3,65.1,48.2,36.8,23.4,47,22,10,29.87,29.40,16,4,39,0.00
2013-6-11,101.2,85.5,66.7,38.2,25.8,10.6,22,12,10,29.90,29.41,14,4,30,0.00
2013-6-12,101.8,83.3,61.3,38.2,23.3,9.4,16,11,10,29.97,29.49,13,3,21,0.00
2013-6-13,98.2,82.2,66.7,43.2,29.0,10.9,26,15,10,29.91,29.45,16,4,23,0.00
2013-6-14,97.5,79.2,66.9,52.2,44.8,29.3,50,32,10,29.86,29.41,11,4,22,0.00
2013-6-15,95.8,77.8,60.7,50.3,38.5,22.5,55,30,10,29.93,29.48,24,5,44,0.00
2013-6-16,95.1,79.0,65.1,46.7,36.4,24.4,41,24,10,29.96,29.54,24,4,40,0.00
2013-6-17,93.5,78.6,61.8,45.8,35.5,24.4,47,24,10,29.97,29.48,11,3,21,0.00
2013-6-18,90.6,78.1,65.1,50.9,43.7,29.3,57,33,12,29.97,29.47,13,5,24,0.00
2013-6-19,98.2,80.9,59.8,40.2,27.9,11.7,34,16,10,29.86,29.29,13,4,21,0.00
2013-6-20,96.9,79.1,59.3,42.6,23.3,9.4,35,14,10,29.88,29.35,11,3,23,0.00
2013-6-21,95.7,78.2,58.8,37.3,21.7,9.2,28,13,10,29.95,29.38,11,4,17,0.00
2013-6-22,94.8,78.4,58.8,31.3,20.0,9.2,15,11,10,29.91,29.39,11,4,21,0.00
2013-6-23,92.8,77.9,57.9,31.3,20.2,9.2,16,12,10,29.89,29.37,11,4,21,0.00
2013-6-24,94.9,80.0,61.1,31.1,20.6,9.5,17,11,10,29.85,29.40,13,4,21,0.00
2013-6-25,96.2,80.4,60.0,31.3,20.9,9.4,16,11,10,29.95,29.47,10,3,19,0.00
2013-6-26,100.5,77.1,61.1,38.2,21.9,10.9,23,13,10,29.97,29.52,11,2,16,0.00
2013-7-3,86.7,77.1,68.5,55.0,49.8,39.5,59,40,23,29.91,29.51,14,4,20,0.05
2013-7-4,93.9,77.0,59.8,54.3,47.5,29.7,74,41,11,29.89,29.46,8,3,16,0.00
2013-7-5,94.6,77.6,65.8,60.8,51.6,43.1,83,44,20,29.85,29.41,11,3,23,0.21
2013-7-6,94.9,75.2,63.8,59.7,54.0,42.5,78,53,17,29.88,29.42,18,4,29,0.06
2013-7-7,95.5,79.7,63.8,58.3,52.8,41.7,74,44,17,29.89,29.47,11,3,17,0.01
2013-7-8,95.1,78.5,66.0,59.2,52.2,46.2,77,42,19,30.05,29.59,14,3,22,0.04
2013-7-9,98.4,78.5,65.2,60.8,55.8,37.0,82,51,12,30.04,29.56,9,3,16,0.01
2013-7-10,95.5,82.4,68.7,55.2,51.3,44.6,60,36,19,29.97,29.57,15,3,23,0.00
2013-7-11,87.9,77.6,67.2,59.6,53.5,42.8,68,45,24,30.01,29.59,11,4,17,0.00
2013-7-12,92.1,78.7,66.1,57.7,53.3,43.5,68,43,21,29.90,29.56,12,3,18,0.00
2013-7-13,95.3,80.6,68.1,57.0,52.3,44.8,63,40,20,29.92,29.55,19,4,28,0.00
2013-7-14,100.7,79.1,65.6,61.9,53.4,36.4,85,47,11,29.99,29.39,14,3,24,0.37
2013-7-15,74.6,68.4,64.9,61.0,54.8,47.5,85,63,44,30.00,29.85,11,4,23,0.00
2013-7-16,84.0,70.6,60.4,51.1,46.5,41.5,67,44,24,30.10,29.75,11,4,22,0.00
2013-7-17,81.3,69.9,58.4,54.7,49.7,43.7,80,52,27,30.21,29.85,10,4,17,0.01
2013-7-18,84.3,73.7,61.1,53.7,50.9,47.6,70,47,31,30.15,29.73,13,4,21,0.00
2013-7-19,70.3,69.4,68.5,54.2,53.3,52.1,60,57,53,29.95,29.92,4,3,11,0.00
2013-7-24,93.0,71.5,66.0,63.9,56.0,51.0,78,60,25,30.01,29.60,13,4,30,0.25
2013-7-25,84.7,73.3,63.8,58.5,56.7,54.5,79,58,40,30.03,29.71,9,3,16,0.00
2013-7-26,88.8,72.9,59.7,59.7,56.7,51.9,89,61,31,30.21,29.74,23,4,44,0.34
2013-7-27,83.4,71.7,60.0,59.2,55.2,50.6,88,59,33,30.16,29.69,11,4,15,0.00
2013-7-28,89.5,73.9,64.5,61.6,57.3,44.8,83,60,22,29.86,29.51,15,3,30,0.06
2013-7-29,91.5,76.1,60.6,58.3,50.2,33.6,83,47,13,29.95,29.62,14,4,22,0.00
2013-7-30,95.5,80.9,62.7,50.0,43.3,29.9,57,30,10,30.11,29.68,11,2,17,0.00
2013-7-31,96.2,82.0,66.0,49.9,43.1,28.6,51,29,10,30.09,29.67,8,2,14,0.00
2013-8-1,86.5,75.1,67.4,61.2,54.3,49.8,80,50,32,30.04,29.76,12,3,21,0.05
2013-8-2,94.2,75.3,63.3,61.0,57.0,47.8,85,59,21,30.00,29.55,16,3,25,0.09
2013-8-3,93.9,77.5,62.0,61.0,54.5,45.7,85,50,21,30.02,29.60,10,2,14,0.00
2013-8-4,93.9,78.8,64.9,60.1,54.9,42.8,82,47,20,30.02,29.60,17,4,28,0.12
2013-8-5,93.1,75.7,64.0,59.4,55.1,48.3,80,52,24,30.01,29.58,12,3,19,0.00
2013-8-6,89.4,75.4,65.6,56.3,51.5,45.2,63,45,22,29.91,29.60,14,4,22,0.00
2013-8-7,83.4,71.9,61.5,55.4,52.3,47.5,75,52,29,29.95,29.66,15,5,26,0.00
2013-8-8,87.6,73.9,62.0,56.0,48.1,35.6,75,45,16,29.92,29.60,16,5,27,0.00
2013-8-9,89.9,75.6,61.3,49.4,42.2,24.9,59,33,10,30.02,29.67,13,4,21,0.00
2013-8-10,84.1,70.6,60.7,53.3,49.4,39.6,73,49,26,30.17,29.81,21,5,30,0.04
2013-8-11,84.1,70.9,59.1,55.2,51.6,43.9,84,54,25,30.19,29.75,10,3,14,0.00
2013-8-12,84.1,71.8,64.3,59.1,54.2,49.8,79,56,34,30.08,29.75,12,3,21,0.00
2013-8-13,88.5,74.9,63.4,55.5,48.9,38.7,74,44,19,30.03,29.70,15,2,25,0.00
2013-8-14,89.7,74.6,63.1,57.6,49.2,33.3,75,45,14,30.04,29.68,17,3,27,0.00
2013-8-15,92.6,75.2,60.9,54.9,47.4,23.0,68,42,10,30.07,29.62,17,2,23,0.00
2013-8-16,97.1,78.2,59.5,51.3,42.3,27.5,62,33,10,30.09,29.60,8,2,15,0.00
2013-8-17,95.8,82.0,69.2,53.3,42.8,28.3,57,28,10,29.97,29.57,14,4,27,0.00
2013-8-18,94.8,80.9,68.5,50.5,45.2,32.9,50,31,12,29.98,29.59,10,3,18,0.00
2013-8-19,94.9,79.8,66.9,55.9,47.1,32.0,63,34,11,29.97,29.57,15,3,24,0.00
2013-8-20,91.0,75.0,60.6,57.8,54.4,46.5,79,53,23,30.01,29.57,15,3,21,0.01
2013-8-21,90.8,77.8,62.9,55.9,50.0,41.3,68,41,19,30.00,29.61,11,3,19,0.00
2013-8-22,91.7,79.8,64.3,50.7,45.7,34.3,61,32,18,30.02,29.61,9,3,14,0.00
2013-8-23,88.3,75.5,61.3,48.2,41.5,33.9,40,30,21,30.01,29.63,11,4,20,0.00
2013-8-24,84.9,74.0,64.0,61.1,53.3,46.2,79,51,29,30.02,29.69,14,3,20,0.06
2013-8-25,86.7,73.4,64.5,61.2,57.2,50.8,85,60,30,30.09,29.79,11,3,17,0.01
2013-8-26,88.3,75.7,62.0,58.1,53.2,47.6,78,49,26,30.12,29.73,8,3,17,0.00
2013-8-27,89.0,76.0,62.7,52.4,48.2,41.4,63,40,21,30.05,29.65,8,2,14,0.00
2013-8-28,89.2,74.9,61.1,54.1,48.7,42.8,59,41,22,30.03,29.69,11,4,18,0.00
2013-8-29,86.1,75.3,67.9,57.2,53.6,49.5,61,48,30,30.03,29.78,13,4,21,0.00
2013-8-30,93.0,77.8,62.7,60.6,52.7,40.8,75,46,20,30.08,29.62,9,2,15,0.00
2013-8-31,94.8,80.0,64.5,57.3,48.8,37.4,64,37,14,29.96,29.50,11,2,13,0.00
2013-9-1,95.3,80.0,67.4,57.1,48.1,30.1,63,35,10,29.97,29.53,14,3,29,0.00
2013-9-2,92.6,77.7,67.4,56.3,52.9,46.9,64,44,25,30.01,29.62,11,3,18,0.00
2013-9-3,92.2,78.7,66.7,57.6,51.7,42.2,68,42,20,30.01,29.62,8,2,17,0.00
2013-9-4,94.2,78.5,64.7,50.8,43.8,21.7,56,32,12,30.07,29.67,8,3,17,0.00
2013-9-5,92.8,77.4,59.8,40.2,33.3,25.1,40,22,10,30.15,29.71,9,2,14,0.00
2013-9-6,89.9,75.9,60.6,39.7,32.2,24.2,35,21,10,30.14,29.66,10,2,17,0.00
2013-9-7,91.5,75.7,61.5,51.4,45.6,36.0,51,36,20,30.04,29.61,10,2,16,0.00
2013-9-8,89.0,75.0,61.1,53.0,45.6,40.3,55,38,19,29.99,29.51,15,3,23,0.00
2013-9-9,87.4,73.6,60.9,54.6,49.5,37.7,68,45,22,29.88,29.47,12,3,23,0.06
2013-9-10,71.2,64.1,60.2,62.0,57.6,54.4,98,80,58,29.99,29.80,7,2,14,0.64
2013-9-11,82.3,69.9,60.2,63.9,56.8,46.5,98,68,31,29.99,29.71,8,2,15,0.01
2013-9-12,74.6,65.5,59.5,65.3,59.0,54.3,94,80,63,30.03,29.80,8,3,15,0.25
2013-9-13,76.0,64.4,59.8,60.8,57.7,52.5,98,81,46,30.01,29.71,8,2,14,0.58
2013-9-14,73.9,63.5,55.0,59.4,56.3,52.1,99,79,50,30.01,29.70,16,2,22,2.00
2013-9-15,78.6,65.6,54.4,57.8,53.0,43.7,99,69,30,30.04,29.74,5,2,11,0.27
2013-9-16,78.9,67.0,55.5,55.5,52.4,48.4,87,62,36,30.15,29.80,8,2,12,0.00
2013-9-17,80.9,69.2,57.0,57.7,54.0,49.1,88,62,34,30.07,29.65,10,3,16,0.00
2013-9-18,82.7,70.5,60.9,58.7,55.5,44.7,88,62,31,29.90,29.57,11,3,16,0.00
2013-9-19,87.0,71.5,58.8,60.1,51.0,38.6,92,55,20,29.90,29.55,10,2,14,0.09
2013-9-20,82.7,69.2,57.3,51.7,48.4,39.2,74,49,29,30.02,29.68,10,3,15,0.00
2013-9-21,80.0,67.5,55.7,55.8,50.7,43.6,86,58,29,30.04,29.63,11,3,17,0.00
2013-9-22,79.3,65.2,54.3,54.7,49.7,37.7,87,61,26,29.87,29.34,19,5,35,0.06
2013-9-23,74.2,60.8,45.3,38.9,30.3,17.3,67,35,13,30.07,29.70,20,5,30,0.00
2013-9-24,77.5,62.3,47.1,40.8,36.4,27.2,67,42,16,30.21,29.75,8,2,13,0.00
2013-9-25,84.7,66.3,47.4,42.6,36.1,18.5,74,39,10,30.01,29.36,11,3,20,0.00
2013-9-26,83.4,68.4,50.8,42.6,32.3,17.4,60,31,10,29.84,29.40,17,5,27,0.00
2013-9-27,69.9,58.2,45.6,47.7,39.1,29.0,62,49,30,30.13,29.62,23,4,30,0.00
2013-9-28,73.2,54.7,44.9,29.0,19.8,9.2,52,30,10,30.29,29.90,8,3,15,0.00
2013-9-29,79.6,60.0,51.4,24.4,18.2,9.6,32,21,10,30.24,29.75,8,2,11,0.00
2013-9-30,85.9,63.4,53.0,29.4,21.8,10.1,31,22,10,30.06,29.54,11,3,17,0.00
2013-10-1,86.7,64.1,53.5,26.2,23.1,13.0,33,23,10,30.03,29.56,6,2,13,0.00
2013-10-2,81.4,63.4,56.6,28.2,24.7,16.6,30,25,10,30.02,29.59,9,2,12,0.00
2013-10-3,63.8,63.8,63.8,28.2,28.2,28.2,26,26,26,29.83,29.59,10,3,18,0.00
2013-10-4,63.8,63.8,63.8,28.2,28.2,28.2,26,26,26,30.00,29.67,20,9,36,0.00
2013-10-5,63.8,63.8,63.8,28.2,28.2,28.2,26,26,26,30.15,30.00,15,6,26,0.00
2013-10-6,74.8,62.1,47.6,28.2,24.9,10.6,36,25,10,30.20,0.00,11,2,21,0.02
2013-10-7,74.4,55.9,36.3,42.7,18.4,10.6,97,27,10,30.09,0.00,8,2,12,0.00
2013-10-8,78.2,60.1,42.6,29.4,24.4,17.1,50,29,11,30.09,30.09,8,3,13,0.00
2013-10-9,75.7,60.5,42.6,34.3,27.7,18.8,56,32,12,30.09,30.09,12,3,17,0.00
2013-10-10,69.2,53.8,40.0,43.6,33.6,24.3,73,48,22,30.09,30.09,22,6,36,0.12
2013-10-11,65.2,47.5,31.0,31.5,27.1,22.6,76,49,21,30.09,30.09,12,2,20,0.00
2013-10-12,70.1,53.4,35.7,34.5,30.2,24.2,73,45,18,30.09,30.09,6,2,9,0.00
2013-10-13,70.5,54.0,46.2,39.2,34.9,32.5,62,50,29,30.09,30.09,7,3,10,0.00
2013-10-15,53.4,51.9,49.9,29.5,27.2,24.8,45,38,33,0.00,0.00,11,4,20,0.00
2013-10-16,64.2,51.3,41.7,34.0,24.6,6.4,65,39,13,0.00,0.00,15,4,23,0.00
2013-10-17,66.7,48.9,32.5,18.7,13.4,6.1,43,26,11,0.00,0.00,8,2,13,0.00
2013-10-18,59.7,43.4,32.8,20.0,12.9,5.4,46,30,15,0.00,0.00,15,3,21,0.00
2013-10-19,68.3,47.4,30.0,24.0,16.7,9.4,63,34,10,0.00,0.00,10,2,13,0.00
2013-10-20,72.1,52.3,32.3,19.2,13.8,8.3,47,24,10,0.00,0.00,13,3,23,0.00
2013-10-21,68.1,52.4,38.2,30.5,23.5,9.3,63,35,14,0.00,0.00,8,2,13,0.00
2013-10-22,70.5,50.8,33.6,26.3,19.1,10.6,60,34,10,0.00,0.00,5,2,8,0.00
2013-10-23,71.4,49.8,34.8,24.2,18.7,13.1,54,33,11,0.00,0.00,7,2,11,0.00